M I D A S
Marine Information and Data Acquisition System
Tripno 802 of the Zeeleeuw from 2004-11-05 12:23:18 to 2004-11-05 15:29:03
Back to CruiseResearch ActivitiesStationsMapUnderway DataData graphs

EquipmentUnitsComments
TimeDGPSUTC
LatitudeDGPSDM.mWGS84
LongitudeDGPSDM.mWGS84
SpeedMeteo Stationm/sRelative wind speed
DirectionMeteo StationdegRelative wind direction
TemperatureMeteo Stationdeg CelciusAir temperature
PressureMeteo StationPaAtmospheric pressure
HumidityMeteo Station%Relative humidity
Missing or incorrect values are displayed as -999
Metereological data collected by the RV Zeeleeuw from 2004-11-05 08:18:08 to 2004-11-05 15:31:42
Time Latitude Longitude Speed Direction Temperature Pressure Humidity
2004-11-05 08:19 51°13.605 2°56.071 7.9 207 11.3 102790 69
2004-11-05 08:20 51°13.633 2°55.979 8.2 194 11.3 102790 68
2004-11-05 08:21 51°13.674 2°55.875 9.1 204 11.7 102780 66
2004-11-05 08:22 51°13.707 2°55.764 8 206 11.5 102790 67
2004-11-05 08:23 51°13.716 2°55.754 9.8 278 11.4 102790 68
2004-11-05 08:24 51°13.716 2°55.758 8.8 305 11.3 102790 68
2004-11-05 08:25 51°13.719 2°55.767 7.6 315 11.3 102780 69
2004-11-05 08:26 51°13.718 2°55.772 6.3 341 11.3 102780 69
2004-11-05 08:27 51°13.793 2°55.672 12.1 6 11.3 102790 69
2004-11-05 08:28 51°13.937 2°55.558 9.2 4 11.3 102780 69
2004-11-05 08:29 51°14.076 2°55.457 11.8 354 11.2 102790 70
2004-11-05 08:30 51°14.224 2°55.32 17 355 11.2 102780 70
2004-11-05 08:31 51°14.352 2°55.071 16.8 11 11.2 102780 70
2004-11-05 08:32 51°14.471 2°54.827 17.3 9 11.2 102780 70
2004-11-05 08:33 51°14.575 2°54.498 14.8 16 11.2 102780 72
2004-11-05 08:34 51°14.657 2°54.173 17.3 17 11.2 102770 71
2004-11-05 08:35 51°14.756 2°53.859 17.2 11 11.2 102760 70
2004-11-05 08:36 51°14.873 2°53.508 16.4 15 11.2 102760 71
2004-11-05 08:38 51°15.001 2°53.128 15.2 14 11.2 102760 72
2004-11-05 08:39 51°15.099 2°52.82 17.5 11 11.2 102760 72
2004-11-05 08:40 51°15.198 2°52.505 14.3 23 11.2 102760 73
2004-11-05 08:41 51°15.28 2°52.178 14.5 17 11.2 102760 72
2004-11-05 08:42 51°15.333 2°51.823 15.4 21 11.2 102750 73
2004-11-05 08:43 51°15.364 2°51.473 14.5 22 11.2 102750 73
2004-11-05 08:44 51°15.4 2°51.126 16.6 26 11.2 102750 72
2004-11-05 08:45 51°15.436 2°50.778 16.7 26 11.2 102750 71
2004-11-05 08:46 51°15.475 2°50.443 18 19 11.3 102760 73
2004-11-05 08:47 51°15.519 2°50.098 17.3 22 11.3 102760 74
2004-11-05 08:48 51°15.564 2°49.744 16.6 17 11.2 102760 71
2004-11-05 08:49 51°15.61 2°49.391 18.2 22 11.2 102760 73
2004-11-05 08:50 51°15.658 2°49.035 16.6 20 11.2 102760 72
2004-11-05 08:51 51°15.7 2°48.699 16.3 29 11.2 102770 73
2004-11-05 08:52 51°15.745 2°48.352 18.9 22 11.2 102770 72
2004-11-05 08:53 51°15.803 2°47.896 16.5 30 11 102750 75
2004-11-05 08:54 51°15.849 2°47.555 18.1 22 10.9 102770 75
2004-11-05 08:55 51°15.893 2°47.211 16.9 23 11 102770 73
2004-11-05 08:56 51°15.938 2°46.855 19.1 30 11 102770 72
2004-11-05 08:57 51°15.981 2°46.513 16.1 29 11.1 102770 73
2004-11-05 08:58 51°16.026 2°46.168 18.2 24 11.2 102770 74
2004-11-05 08:59 51°16.069 2°45.831 15.4 23 11.2 102770 74
2004-11-05 09:00 51°16.162 2°45.516 17.5 5 11.2 102790 75
2004-11-05 09:01 51°16.29 2°45.239 17.9 6 11.1 102780 73
2004-11-05 09:02 51°16.423 2°44.954 17.3 11 11.1 102800 72
2004-11-05 09:03 51°16.553 2°44.68 17.6 6 11.1 102830 72
2004-11-05 09:04 51°16.69 2°44.407 16.8 10 11 102810 72
2004-11-05 09:05 51°16.838 2°44.131 17.9 12 11 102810 72
2004-11-05 09:06 51°17 2°43.8 19 10 11.1 102830 74
2004-11-05 09:07 51°17.072 2°43.451 17.1 30 10.8 102820 76
2004-11-05 09:08 51°17.091 2°43.103 16.7 31 10.6 102820 76
2004-11-05 09:10 51°17.124 2°42.62 16.9 30 10.7 102820 73
2004-11-05 09:11 51°17.145 2°42.237 17.7 30 10.9 102820 72
2004-11-05 09:12 51°17.155 2°41.844 18.4 37 10.9 102800 73
2004-11-05 09:13 51°17.172 2°41.472 15.9 32 10.6 102830 77
2004-11-05 09:14 51°17.199 2°41.121 19.6 35 10.6 102810 74
2004-11-05 09:15 51°17.219 2°40.771 17.9 35 10.7 102810 73
2004-11-05 09:16 51°17.24 2°40.282 15.5 34 10.8 102830 73
2004-11-05 09:18 51°17.262 2°39.847 17.7 31 11 102830 70
2004-11-05 09:19 51°17.283 2°39.426 15.7 37 11.1 102810 72
2004-11-05 09:20 51°17.305 2°39.125 12.5 30 11.1 102830 70
2004-11-05 09:21 51°17.345 2°39.024 10.8 318 11.1 102840 67
2004-11-05 09:22 51°17.355 2°39.031 12.4 277 11 102840 68
2004-11-05 09:23 51°17.35 2°39.044 11.2 275 11.1 102840 71
2004-11-05 09:25 51°17.34 2°39.056 15 274 11.2 102840 73
2004-11-05 09:26 51°17.329 2°39.062 11.3 262 11.1 102840 71
2004-11-05 09:27 51°17.319 2°39.07 12.8 263 11.1 102830 71
2004-11-05 09:28 51°17.31 2°39.08 10 268 11.1 102850 69
2004-11-05 09:29 51°17.302 2°39.09 12.3 268 11.2 102840 71
2004-11-05 09:30 51°17.293 2°39.102 10.8 277 11.1 102850 70
2004-11-05 09:31 51°17.286 2°39.109 13.2 270 11.1 102840 71
2004-11-05 09:32 51°17.277 2°39.116 13.4 270 11.1 102850 69
2004-11-05 09:33 51°17.268 2°39.119 7 254 11.1 102850 70
2004-11-05 09:34 51°17.26 2°39.126 12.1 269 11.2 102850 71
2004-11-05 09:35 51°17.267 2°39.15 10.9 273 11.2 102860 69
2004-11-05 09:36 51°17.309 2°39.214 10.9 287 11.2 102850 69
2004-11-05 09:37 51°17.358 2°39.292 9.7 294 11.1 102840 66
2004-11-05 09:38 51°17.406 2°39.369 11.5 294 11.2 102840 68
2004-11-05 09:39 51°17.477 2°39.446 12.1 294 11.2 102830 65
2004-11-05 09:40 51°17.532 2°39.482 12.7 299 11.2 102830 65
2004-11-05 09:41 51°17.543 2°39.498 11.3 290 11.3 102850 68
2004-11-05 09:42 51°17.537 2°39.506 12.5 276 11.3 102840 68
2004-11-05 09:44 51°17.53 2°39.514 13.3 272 11.2 102850 68
2004-11-05 09:45 51°17.519 2°39.521 12.1 266 11.2 102850 64
2004-11-05 09:46 51°17.51 2°39.524 14 266 11.1 102850 65
2004-11-05 09:47 51°17.501 2°39.528 13.5 264 11.1 102850 65
2004-11-05 09:48 51°17.493 2°39.531 11.9 263 11.1 102850 65
2004-11-05 09:49 51°17.484 2°39.533 9.1 259 11.1 102840 67
2004-11-05 09:50 51°17.476 2°39.536 12.7 269 11.1 102840 63
2004-11-05 09:51 51°17.47 2°39.539 11.2 262 11.1 102850 64
2004-11-05 09:52 51°17.463 2°39.543 10.8 268 11.1 102850 63
2004-11-05 09:54 51°17.458 2°39.545 12.8 274 11.1 102850 67
2004-11-05 09:55 51°17.452 2°39.545 13 265 11.2 102850 68
2004-11-05 09:56 51°17.446 2°39.548 10.5 267 11.1 102850 68
2004-11-05 09:57 51°17.446 2°39.557 11 289 11.1 102850 66
2004-11-05 09:58 51°17.496 2°39.587 11.8 310 11.2 102850 67
2004-11-05 09:59 51°17.564 2°39.633 13 312 11.1 102840 65
2004-11-05 10:00 51°17.627 2°39.69 11.9 297 11.2 102850 65
2004-11-05 10:01 51°17.706 2°39.77 12.8 300 11.1 102850 64
2004-11-05 10:02 51°17.794 2°39.857 10.1 296 11.1 102850 60
2004-11-05 10:03 51°17.917 2°40.014 11.6 294 11.1 102850 62
2004-11-05 10:05 51°18.038 2°40.224 14.1 273 -999 -999 -999
2004-11-05 10:06 51°18.1 2°40.321 11.5 290 11.2 102840 62
2004-11-05 10:07 51°18.156 2°40.412 11.3 282 11.2 102860 60
2004-11-05 10:09 51°18.222 2°40.533 12.4 281 11.2 102840 61
2004-11-05 10:10 51°18.28 2°40.632 11 291 11.2 102840 61
2004-11-05 10:11 51°18.339 2°40.728 11 274 11.2 102850 63
2004-11-05 10:12 51°18.394 2°40.823 12.9 289 11.3 102850 66
2004-11-05 10:13 51°18.451 2°40.922 10.4 285 11.3 102850 63
2004-11-05 10:14 51°18.511 2°41.03 10.8 283 11.2 102850 59
2004-11-05 10:15 51°18.577 2°41.149 13.9 282 11.3 102850 62
2004-11-05 10:16 51°18.634 2°41.17 13.2 350 11.3 102840 65
2004-11-05 10:17 51°18.653 2°41.094 12.6 70 11.2 102840 61
2004-11-05 10:18 51°18.605 2°41.048 9.9 123 11.1 102860 58
2004-11-05 10:19 51°18.528 2°41.023 10.1 103 11.1 102860 59
2004-11-05 10:20 51°18.45 2°40.981 8.7 110 11.1 102880 60
2004-11-05 10:22 51°18.37 2°40.853 10.9 86 11.1 102860 61
2004-11-05 10:23 51°18.267 2°40.654 9.6 80 11.1 102870 58
2004-11-05 10:24 51°18.204 2°40.533 8.2 84 11.1 102870 61
2004-11-05 10:25 51°18.138 2°40.419 11.8 87 11.2 102870 62
2004-11-05 10:26 51°18.074 2°40.293 13.1 85 11.1 102870 61
2004-11-05 10:27 51°18.01 2°40.168 10.5 86 11.1 102870 55
2004-11-05 10:28 51°17.944 2°40.05 12.2 88 11.1 102880 59
2004-11-05 10:29 51°17.88 2°39.938 12.7 88 11.1 102870 58
2004-11-05 10:31 51°17.779 2°39.803 11.8 94 11.1 102870 60
2004-11-05 10:32 51°17.651 2°39.627 10.8 86 11.1 102880 57
2004-11-05 10:33 51°17.581 2°39.499 8.5 74 11.1 102880 58
2004-11-05 10:35 51°17.505 2°39.337 11.2 83 11.1 102880 60
2004-11-05 10:36 51°17.446 2°39.214 13.6 88 11.1 102880 61
2004-11-05 10:37 51°17.356 2°39.073 9.2 82 11.1 102890 60
2004-11-05 10:38 51°17.275 2°38.947 10.8 79 11.1 102880 58
2004-11-05 10:40 51°17.185 2°38.766 10.3 84 11.1 102890 58
2004-11-05 10:41 51°17.121 2°38.627 11.6 57 11.1 102890 52
2004-11-05 10:43 51°17.147 2°38.513 11.3 298 11.1 102900 56
2004-11-05 10:44 51°17.172 2°38.574 8.2 260 11.3 102910 64
2004-11-05 10:45 51°17.196 2°38.702 6.6 261 11.2 102920 59
2004-11-05 10:46 51°17.226 2°38.804 11.9 295 11.2 102910 60
2004-11-05 10:47 51°17.28 2°38.898 9.6 284 11.3 102910 62
2004-11-05 10:48 51°17.338 2°39.034 10.4 271 11.3 102920 62
2004-11-05 10:49 51°17.385 2°39.134 11.7 290 11.3 102920 61
2004-11-05 10:50 51°17.44 2°39.234 12.1 277 11.2 102910 60
2004-11-05 10:51 51°17.502 2°39.331 10.5 288 11.2 102930 59
2004-11-05 10:52 51°17.564 2°39.416 11.4 292 11.2 102890 59
2004-11-05 10:54 51°17.639 2°39.516 9.5 287 11.2 102910 57
2004-11-05 10:55 51°17.738 2°39.683 10.7 283 -999 -999 -999
2004-11-05 10:57 51°17.8 2°39.799 10.9 277 11.2 102920 59
2004-11-05 10:58 51°17.85 2°39.894 11.6 283 11.2 102930 58
2004-11-05 10:59 51°17.914 2°40.013 10.7 282 11.2 102920 59
2004-11-05 11:00 51°17.973 2°40.109 9.5 292 11.2 102910 60
2004-11-05 11:01 51°18.027 2°40.2 9 286 11.2 102910 58
2004-11-05 11:02 51°18.086 2°40.301 9.5 294 11.3 102920 62
2004-11-05 11:03 51°18.142 2°40.394 10.5 288 11.3 102920 62
2004-11-05 11:04 51°18.196 2°40.49 10.4 279 11.3 102920 64
2004-11-05 11:05 51°18.25 2°40.588 10.6 283 11.3 102900 59
2004-11-05 11:06 51°18.312 2°40.695 10.7 292 11.3 102900 60
2004-11-05 11:07 51°18.366 2°40.785 10 289 11.3 102890 59
2004-11-05 11:08 51°18.421 2°40.872 10.7 283 11.3 102910 59
2004-11-05 11:09 51°18.47 2°40.961 10.2 288 11.3 102910 60
2004-11-05 11:10 51°18.517 2°41.049 11.5 289 11.3 102910 59
2004-11-05 11:11 51°18.578 2°41.157 9.4 281 11.3 102910 57
2004-11-05 11:13 51°18.643 2°41.229 10.8 316 11.3 102890 59
2004-11-05 11:14 51°18.676 2°41.183 11.9 12 11.3 102910 63
2004-11-05 11:15 51°18.657 2°41.113 11.7 99 11.2 102880 59
2004-11-05 11:16 51°18.589 2°41.089 8 117 11.2 102920 61
2004-11-05 11:17 51°18.509 2°41.012 8.5 107 11.2 102910 64
2004-11-05 11:18 51°18.44 2°40.914 10.6 84 11.1 102900 59
2004-11-05 11:19 51°18.374 2°40.802 11.7 85 11.1 102900 63
2004-11-05 11:20 51°18.293 2°40.677 10.3 92 11 102900 63
2004-11-05 11:21 51°18.211 2°40.544 9.8 85 11.1 102900 66
2004-11-05 11:22 51°18.133 2°40.412 7.8 78 11.1 102890 63
2004-11-05 11:23 51°18.058 2°40.284 6.6 71 11 102900 62
2004-11-05 11:24 51°17.99 2°40.171 10.8 79 11.1 102900 65
2004-11-05 11:25 51°17.921 2°40.048 9.5 79 11.1 102890 66
2004-11-05 11:26 51°17.839 2°39.912 9   11 102910 63
2004-11-05 11:27 51°17.774 2°39.799 12.1 88 11 102900 61
2004-11-05 11:28 51°17.706 2°39.671 12.3 86 11 102910 62
2004-11-05 11:29 51°17.639 2°39.544 12.5 87 11 102910 61
2004-11-05 11:30 51°17.568 2°39.416 6.8 75 11 102910 62
2004-11-05 11:31 51°17.489 2°39.28 8 77 11.1 102910 65
2004-11-05 11:33 51°17.415 2°39.154 12.9 88 11.2 102920 67
2004-11-05 11:34 51°17.345 2°39.042 10 85 11.1 102920 64
2004-11-05 11:35 51°17.275 2°38.925 9.4 81 11.1 102910 65
2004-11-05 11:36 51°17.204 2°38.814 10.2 79 11.1 102910 62
2004-11-05 11:37 51°17.133 2°38.705 11 80 11 102910 61
2004-11-05 11:38 51°17.041 2°38.563 12.1 87 11.1 102910 60
2004-11-05 11:39 51°16.96 2°38.435 9.4 86 11 102910 59
2004-11-05 11:40 51°16.881 2°38.312 10.3 88 11 102920 60
2004-11-05 11:41 51°16.834 2°38.235 10.3 92 11.1 102920 61
2004-11-05 11:43 51°16.807 2°38.196 8.4 93 11.1 102920 61
2004-11-05 11:44 51°16.791 2°38.183 9.3 112 11.1 102930 62
2004-11-05 11:45 51°16.776 2°38.183 9.2 119 11.1 102940 60
2004-11-05 11:46 51°16.761 2°38.183 8.8 119 11.1 102930 59
2004-11-05 11:47 51°16.746 2°38.181 9.1 123 11.1 102930 61
2004-11-05 11:48 51°16.718 2°38.16 8.9 86 11.1 102930 59
2004-11-05 11:49 51°16.698 2°38.095 8.3 43 11.1 102930 63
2004-11-05 11:50 51°16.706 2°38.025 11.6 353 11.1 102920 61
2004-11-05 11:51 51°16.741 2°38.017 10.4 286 11.1 102910 59
2004-11-05 11:52 51°16.765 2°38.066 7.8 282 11.2 102940 61
2004-11-05 11:53 51°16.792 2°38.112 8.5 293 11.2 102930 60
2004-11-05 11:54 51°16.817 2°38.15 10.3 282 11.2 102920 61
2004-11-05 11:55 51°16.839 2°38.186 7.7 277 11.2 102940 58
2004-11-05 11:56 51°16.863 2°38.221 9.1 279 11.3 102920 61
2004-11-05 11:57 51°16.889 2°38.267 8.8 283 11.3 102910 58
2004-11-05 11:59 51°16.912 2°38.317 8.7 277 11.3 102950 61
2004-11-05 12:00 51°16.941 2°38.38 10.2 276 11.3 102940 60
2004-11-05 12:01 51°16.964 2°38.424 10.8 270 11.3 102930 59
2004-11-05 12:02 51°16.992 2°38.481 9.8 294 11.3 102940 59
2004-11-05 12:03 51°17.018 2°38.526 9.5 285 11.3 102940 59
2004-11-05 12:04 51°17.041 2°38.56 11 291 11.3 102940 56
2004-11-05 12:05 51°17.066 2°38.594 9.7 295 11.3 102920 57
2004-11-05 12:06 51°17.091 2°38.629 8.1 283 11.3 102930 59
2004-11-05 12:07 51°17.114 2°38.662 7.2 283 11.3 102940 57
2004-11-05 12:08 51°17.137 2°38.696 7.8 287 11.3 102930 58
2004-11-05 12:09 51°17.162 2°38.735 9.6 289 11.4 102920 61
2004-11-05 12:11 51°17.189 2°38.779 8.8 286 11.3 102940 61
2004-11-05 12:12 51°17.21 2°38.813 7.6 289 11.4 102930 60
2004-11-05 12:13 51°17.232 2°38.851 10 282 11.3 102920 62
2004-11-05 12:14 51°17.252 2°38.884 9.6 265 11.4 102950 60
2004-11-05 12:15 51°17.28 2°38.925 9.4 274 11.3 102930 56
2004-11-05 12:16 51°17.299 2°38.957 9.7 267 11.3 102940 57
2004-11-05 12:17 51°17.318 2°38.989 10 275 11.3 102940 61
2004-11-05 12:18 51°17.343 2°39.023 10.4 265 11.3 102940 60
2004-11-05 12:19 51°17.365 2°39.06 7.3 259 11.3 102930 62
2004-11-05 12:20 51°17.382 2°39.099 10.2 267 11.3 102940 62
2004-11-05 12:21 51°17.401 2°39.135 10.3 262 11.3 102940 61
2004-11-05 12:22 51°17.419 2°39.166 8.6 282 11.3 102940 59
2004-11-05 12:23 51°17.441 2°39.198 8.3 281 11.3 102930 61
2004-11-05 12:25 51°17.459 2°39.239 8.9 279 11.3 102930 62
2004-11-05 12:26 51°17.479 2°39.273 9.2 271 11.3 102930 61
2004-11-05 12:27 51°17.5 2°39.304 6.5 254 11.3 102940 61
2004-11-05 12:28 51°17.52 2°39.335 9.8 266 11.3 102940 60
2004-11-05 12:29 51°17.542 2°39.367 9.8 270 11.3 102940 62
2004-11-05 12:30 51°17.561 2°39.402 7.7 261 11.3 102950 61
2004-11-05 12:31 51°17.583 2°39.447 7.6 259 11.3 102940 65
2004-11-05 12:32 51°17.606 2°39.497 7.2 258 11.3 102930 63
2004-11-05 12:33 51°17.625 2°39.534 9.1 264 11.2 102940 64
2004-11-05 12:34 51°17.649 2°39.576 9.7 274 11.2 102930 65
2004-11-05 12:35 51°17.665 2°39.616 11.2 262 11.2 102940 65
2004-11-05 12:36 51°17.684 2°39.659 9.3 258 11.2 102950 62
2004-11-05 12:37 51°17.703 2°39.689 10.3 272 11.2 102950 59
2004-11-05 12:39 51°17.727 2°39.718 10.8 260 11.2 102930 62
2004-11-05 12:40 51°17.752 2°39.755 9.1 276 11.2 102930 60
2004-11-05 12:41 51°17.772 2°39.796 7.4 258 11.2 102940 64
2004-11-05 12:42 51°17.789 2°39.829 11.4 270 11.2 102930 65
2004-11-05 12:43 51°17.809 2°39.862 9.3 278 11.3 102930 65
2004-11-05 12:44 51°17.83 2°39.898 10.3   11.3 102930 66
2004-11-05 12:45 51°17.849 2°39.933 11 276 11.3 102930 65
2004-11-05 12:47 51°17.869 2°39.979 12.1 267 11.3 102910 64
2004-11-05 12:48 51°17.888 2°40.021 9.2 276 11.2 102930 63
2004-11-05 12:49 51°17.906 2°40.051 10.8 267 11.2 102930 59
2004-11-05 12:50 51°17.931 2°40.098 9.7 279 11.2 102930 62
2004-11-05 12:51 51°17.957 2°40.136 9.9 281 11.2 102910 63
2004-11-05 12:52 51°17.981 2°40.167 10.2 284 11.2 102920 63
2004-11-05 12:54 51°18.004 2°40.209 9.7 277 11.2 102930 63
2004-11-05 12:55 51°18.026 2°40.251 12.2 277 11.2 102920 62
2004-11-05 12:56 51°18.043 2°40.287 10.1 284 11.2 102930 62
2004-11-05 12:57 51°18.062 2°40.32 9.4 282 11.2 102910 62
2004-11-05 12:58 51°18.079 2°40.349 9.8 273 11.2 102930 61
2004-11-05 12:59 51°18.094 2°40.374 11.2 268 11.2 102920 64
2004-11-05 13:00 51°18.116 2°40.405 12.8 266 11.2 102930 59
2004-11-05 13:01 51°18.135 2°40.431 11.5 280 11.2 102920 59
2004-11-05 13:02 51°18.156 2°40.461 10.8 263 11.2 102920 60
2004-11-05 13:04 51°18.197 2°40.524 10.2 279 11.2 102920 61
2004-11-05 13:05 51°18.221 2°40.565 8.5 268 11.2 102920 63
2004-11-05 13:06 51°18.245 2°40.606 10.9 274 11.2 102910 60
2004-11-05 13:08 51°18.269 2°40.643 10.3 275 11.2 102920 62
2004-11-05 13:09 51°18.288 2°40.679 10.3 274 11.3 102930 61
2004-11-05 13:10 51°18.311 2°40.721 10.3 268 11.2 102930 59
2004-11-05 13:11 51°18.337 2°40.76 10.6 263 11.2 102930 56
2004-11-05 13:12 51°18.359 2°40.793 9.4 268 11.2 102930 55
2004-11-05 13:13 51°18.378 2°40.828 9.5 260 11.2 102930 55
2004-11-05 13:14 51°18.402 2°40.871 7.9 278 11.2 102930 57
2004-11-05 13:15 51°18.429 2°40.917 8.8 285 11.3 102940 58
2004-11-05 13:16 51°18.451 2°40.949 8.9 281 11.3 102930 54
2004-11-05 13:17 51°18.47 2°40.979 9.1 273 11.3 102930 54
2004-11-05 13:19 51°18.492 2°41.018 9 284 11.3 102930 56
2004-11-05 13:20 51°18.518 2°41.061 10.3 286 11.4 102920 55
2004-11-05 13:21 51°18.539 2°41.099 10.5 283 11.4 102920 57
2004-11-05 13:22 51°18.564 2°41.148 9.9 276 11.3 102920 53
2004-11-05 13:23 51°18.588 2°41.208 11 282 11.3 102930 53
2004-11-05 13:24 51°18.632 2°41.226 10.3 344 11.3 102890 52
2004-11-05 13:25 51°18.644 2°41.157 9.7 44 11.3 102910 57
2004-11-05 13:26 51°18.606 2°41.102 10.9 111 11.2 102900 54
2004-11-05 13:27 51°18.558 2°41.066 9 89 11.2 102910 57
2004-11-05 13:28 51°18.516 2°41.021 9.1 86 11.2 102900 55
2004-11-05 13:29 51°18.478 2°40.989 11.1 114 11.1 102910 56
2004-11-05 13:31 51°18.427 2°40.942 10.9 88 11.1 102900 54
2004-11-05 13:32 51°18.398 2°40.911 6.8 75 11.1 102890 52
2004-11-05 13:33 51°18.373 2°40.878 10.5 58 11.1 102890 53
2004-11-05 13:34 51°18.35 2°40.822 9.2 55 11.1 102890 55
2004-11-05 13:35 51°18.318 2°40.736 10.1 65 11.1 102890 55
2004-11-05 13:36 51°18.282 2°40.653 11.3 64 11.1 102890 57
2004-11-05 13:37 51°18.244 2°40.586 10 65 11.1 102890 56
2004-11-05 13:38 51°18.209 2°40.521 8.7 69 11.1 102900 58
2004-11-05 13:39 51°18.175 2°40.458 8.1 75 11.2 102900 58
2004-11-05 13:40 51°18.138 2°40.398 8.1 75 11.1 102900 54
2004-11-05 13:41 51°18.104 2°40.344 7.9 80 11.1 102900 59
2004-11-05 13:43 51°18.063 2°40.271 9.2 79 11.1 102900 61
2004-11-05 13:44 51°18.024 2°40.212 8.5 80 11.1 102890 56
2004-11-05 13:45 51°17.987 2°40.157 9.2 80 11.1 102910 58
2004-11-05 13:46 51°17.943 2°40.095 7.4 81 11.1 102900 55
2004-11-05 13:47 51°17.896 2°40.023 9.1 76 11.1 102900 61
2004-11-05 13:48 51°17.866 2°39.968 8.9 69 11.1 102930 57
2004-11-05 13:49 51°17.828 2°39.899 8.5 77 11.1 102900 57
2004-11-05 13:50 51°17.796 2°39.841 8.7 64 11.1 102900 60
2004-11-05 13:52 51°17.755 2°39.766 9.8 73 11.1 102910 58
2004-11-05 13:53 51°17.712 2°39.699 7.8 71 11.2 102900 56
2004-11-05 13:54 51°17.674 2°39.637 8.2 75 11.1 102920 56
2004-11-05 13:55 51°17.645 2°39.577 9.5 63 11.2 102900 56
2004-11-05 13:56 51°17.615 2°39.513 9.3 70 11.1 102900 54
2004-11-05 13:57 51°17.585 2°39.454 7.3 82 11.1 102910 56
2004-11-05 13:58 51°17.55 2°39.391 7.8 79 11.2 102910 59
2004-11-05 13:59 51°17.507 2°39.319 8.3 79 11.2 102900 54
2004-11-05 14:00 51°17.461 2°39.246 8.7 78 11.2 102890 56
2004-11-05 14:01 51°17.424 2°39.187 9.6 83 11.2 102900 54
2004-11-05 14:03 51°17.374 2°39.111 11 72 11.2 102900 54
2004-11-05 14:04 51°17.325 2°39.031 8.7 67 11.2 102890 52
2004-11-05 14:05 51°17.283 2°38.963 9.1 78 11.2 102880 56
2004-11-05 14:06 51°17.251 2°38.897 9.8 54 11.1 102890 55
2004-11-05 14:07 51°17.242 2°38.836 9.9 19 11.1 102900 57
2004-11-05 14:09 51°17.254 2°38.8 10.2 320 11.2 102890 60
2004-11-05 14:10 51°17.268 2°38.819 11.6 262 11.2 102890 57
2004-11-05 14:11 51°17.266 2°38.874 8 226 11.2 102910 55
2004-11-05 14:12 51°17.217 2°38.946 10.4 141 11.2 102900 56
2004-11-05 14:13 51°17.16 2°38.927 9.4 106 11.2 102890 55
2004-11-05 14:14 51°17.128 2°38.875 9.8 61 11.2 102880 57
2004-11-05 14:15 51°17.11 2°38.812 10.1 29 11.1 102880 56
2004-11-05 14:16 51°17.113 2°38.762 10.2 1 11.2 102900 61
2004-11-05 14:17 51°17.131 2°38.753 10.6 312 11.1 102890 56
2004-11-05 14:19 51°17.124 2°38.769 9.2 286 11.1 102900 59
2004-11-05 14:20 51°17.113 2°38.778 10.7 269 11.2 102900 61
2004-11-05 14:21 51°17.1 2°38.787 7.8 257 11.2 102900 59
2004-11-05 14:22 51°17.086 2°38.799 8.5 272 11.2 102900 60
2004-11-05 14:24 51°17.068 2°38.81 11.1 276 11.3 102890 64
2004-11-05 14:25 51°17.052 2°38.82 9.4 266 11.3 102900 59
2004-11-05 14:26 51°17.036 2°38.829 11.8 267 11.2 102890 60
2004-11-05 14:27 51°17.039 2°38.943 8 232 11.2 102900 57
2004-11-05 14:29 51°16.875 2°39.241 2.1 198 11.4 102920 58
2004-11-05 14:30 51°16.667 2°39.588 1.2 193 11.4 102910 56
2004-11-05 14:31 51°16.488 2°39.883 1.1 228 11.4 102910 58
2004-11-05 14:32 51°16.325 2°40.139 1.3 221 11.4 102900 56
2004-11-05 14:33 51°16.138 2°40.433 0.6 141 11.3 102900 58
2004-11-05 14:34 51°15.978 2°40.708 1.4 118 11.3 102890 59
2004-11-05 14:35 51°15.795 2°41.044 1.9 138 11.3 102890 60
2004-11-05 14:37 51°15.631 2°41.348 1.8 165 11.3 102890 58
2004-11-05 14:38 51°15.485 2°41.725 3.8 229 11.3 102900 60
2004-11-05 14:39 51°15.441 2°42.063 4.5 271 11.2 102890 58
2004-11-05 14:40 51°15.444 2°42.578 5.8 287 11.2 102870 61
2004-11-05 14:41 51°15.413 2°42.971 5.4   11.2 102880 58
2004-11-05 14:42 51°15.393 2°43.407 5.7 276 11.2 102880 60
2004-11-05 14:44 51°15.364 2°43.95 6.4 289 11.2 102880 60
2004-11-05 14:45 51°15.343 2°44.321 5.2 285 11.2 102890 61
2004-11-05 14:46 51°15.319 2°44.704 3.7 282 11.2 102890 63
2004-11-05 14:47 51°15.298 2°45.081 6.6 263 11.3 102880 64
2004-11-05 14:48 51°15.277 2°45.438 6.2 288 11.2 102890 60
2004-11-05 14:49 51°15.255 2°45.809 8.1 275 11.2 102890 61
2004-11-05 14:50 51°15.232 2°46.163 5.6 262 11.2 102890 60
2004-11-05 14:51 51°15.221 2°46.567 4.7 258 11.2 102900 59
2004-11-05 14:52 51°15.205 2°46.928 5.3 274 11.2 102880 61
2004-11-05 14:53 51°15.193 2°47.277 4.8 273 11.2 102880 61
2004-11-05 14:54 51°15.189 2°47.707 8.3 272 11.2 102890 62
2004-11-05 14:55 51°15.17 2°48.103 4.6 263 11.2 102880 59
2004-11-05 14:56 51°15.146 2°48.504 5.9 269 11.1 102890 59
2004-11-05 14:58 51°15.123 2°48.879 6 262 11.2 102870 61
2004-11-05 14:58 51°15.103 2°49.24 5.8 275 11.2 102890 61
2004-11-05 15:00 51°15.073 2°49.686 10.3 267 11.2 102890 60
2004-11-05 15:01 51°15.047 2°50.036 7.7 267 11.2 102890 61
2004-11-05 15:02 51°15.022 2°50.414 4.8 274 11.2 102890 62
2004-11-05 15:03 51°14.996 2°50.773 5 285 11.1 102880 60
2004-11-05 15:04 51°14.968 2°51.168 6 271 11.1 102890 60
2004-11-05 15:05 51°14.944 2°51.579 5.6 268 11.1 102890 59
2004-11-05 15:06 51°14.904 2°52.117 3.9 267 11.1 102880 61
2004-11-05 15:08 51°14.855 2°52.494 5.1 259 11.1 102890 62
2004-11-05 15:09 51°14.816 2°52.784 5.5 231 11.1 102880 60
2004-11-05 15:10 51°14.779 2°53.025 6.8 241 11 102880 60
2004-11-05 15:11 51°14.746 2°53.215 3.7 234 11 102880 58
2004-11-05 15:12 51°14.707 2°53.405 3.4 243 11 102880 59
2004-11-05 15:13 51°14.669 2°53.601 6 214 11 102880 61
2004-11-05 15:14 51°14.609 2°53.913 2 252 11 102880 60
2004-11-05 15:15 51°14.526 2°54.319 2.7 264 11 102870 60
2004-11-05 15:16 51°14.453 2°54.693 3.8 231 11 102860 60
2004-11-05 15:18 51°14.348 2°55.079 2.4 247 11 102860 60
2004-11-05 15:19 51°14.236 2°55.307 2.9 158 11 102870 63
2004-11-05 15:20 51°14.099 2°55.44 3.9 141 11 102870 61
2004-11-05 15:21 51°13.958 2°55.541 2.5 127 11 102870 60
2004-11-05 15:22 51°13.834 2°55.634 2.7 104 11 102860 60
2004-11-05 15:23 51°13.721 2°55.79 1.1 171 11 102860 59
2004-11-05 15:24 51°13.659 2°55.921 2.6 183 11 102860 59
2004-11-05 15:25 51°13.616 2°56.046 4.9 223 11.1 102860 57
2004-11-05 15:26 51°13.601 2°56.1 6.3 209 11.1 102870 57
2004-11-05 15:27 51°13.597 2°56.107 6.2 196 11.1 102870 57
2004-11-05 15:28 51°13.597 2°56.112 5.8 205 11.2 102880 59
2004-11-05 15:29 51°13.597 2°56.11 3.7 184 11.3 102880 56
2004-11-05 15:30 51°13.597 2°56.111 3.9 195 11.4 102880 57